Content
SEND FEEDBACK

Daily
Averages
Monthly
Summary
Portugal

HORTA, PORTUGAL


Home > Europe > Portugal
Elevation: 134 feet     Latitude: 38 31N     Longitude: 028 43W

WEATHER
 
SELECT A DAY
Number of Records: 159,801;   Date Range: 4/1/99 - 8/12/14
 
SHARE

PRINT THIS DATA

[ ← Previous Day ]
WEATHER ALMANAC - JANUARY 31, 2013
[ Next Day → ]
[ °C ]   °F
Weather ElementAverageHighLow
Temperature62.7 °F66.2 °F (2:00 pm)60 °F (11:00 pm)
Dewpoint57.4 °F60.8 °F (11:00 am)51.8 °F (8:30 pm)
Humidity82.3 %94 % (7:00 am)67 % (11:00 pm)
Barometer30.05 in30.22 in (11:00 pm)29.92 in (6:00 am)
Wind Speed14 mph19.6 mph (7:00 am)
Weather ElementAverage
Visibility6.5 mi
Wind DirectionSSW (213.1 °)

Weather ElementTotal
Precipitation---
Heating Degree Days1.9 (Base 65)
Growing Degree Days13.1 (Base 50)
Averaged from 42 records on January 31, 2013
WEATHER CONDITIONS BREAKOUT
WIND DIRECTION BREAKOUT
WEATHER BY HOUR - JANUARY 31, 2013
[ °C ]   °F
Local TimeTemperatureDewpointHumidityBarometerVisibilityWind DirectionWind SpeedGust SpeedPrecipitationEventsConditions
6:00 AM62.6 °F59.0 °F88 %29.92 in6.2 miSouth (190°)16.1 mphScattered Clouds
6:30 AM62.6 °F59.0 °F88 %29.92 in6.2 miSouth (180°)18.4 mphPartly Cloudy
7:00 AM60.8 °F59.0 °F94 %29.92 in6.2 miSouth (170°)19.6 mphPartly Cloudy
7:30 AM60.8 °F59.0 °F94 %29.95 in6.2 miSouth (180°)17.3 mphPartly Cloudy
8:00 AM60.8 °F59.0 °F94 %29.95 in6.2 miSouth (180°)16.1 mphPartly Cloudy
8:00 AM62.0 °F58.0 °F84 %29.95 in9.0 miSouth (180°)15.7 mphMist
8:30 AM60.8 °F59.0 °F94 %29.95 in6.2 miSouth (170°)15.0 mphPartly Cloudy
9:00 AM62.6 °F59.0 °F88 %29.98 in6.2 miSouth (170°)11.5 mphPartly Cloudy
9:30 AM62.6 °F59.0 °F88 %29.98 in6.2 miSouth (180°)10.4 mphPartly Cloudy
10:00 AM62.6 °F59.0 °F88 %29.98 in6.2 miSouth (180°)11.5 mphPartly Cloudy
10:30 AM62.6 °F59.0 °F88 %29.98 in6.2 miSouth (170°)10.4 mphPartly Cloudy
11:00 AM63.0 °F60.0 °F88 %30.01 in7.0 miSouth (170°)11.2 mphMist
11:00 AM62.6 °F60.8 °F94 %30.01 in6.2 miSouth (170°)10.4 mphPartly Cloudy
11:30 AM64.4 °F60.8 °F88 %30.01 in6.2 miSSE (160°)9.2 mphPartly Cloudy
12:00 PM64.4 °F60.8 °F88 %30.01 in6.2 miSouth (180°)15.0 mphPartly Cloudy
12:30 PM64.4 °F60.8 °F88 %30.01 in6.2 miSouth (190°)13.8 mphPartly Cloudy
1:00 PM64.4 °F60.8 °F88 %30.01 in6.2 miSouth (190°)8.1 mphPartly Cloudy
1:30 PM64.4 °F59.0 °F83 %30.01 in5.6 miSSW (210°)6.9 mphPartly Cloudy
2:00 PM65.0 °F60.0 °F78 %30.02 in6.0 miSW (230°)11.2 mphMist
2:00 PM66.2 °F59.0 °F78 %30.01 in5.6 miSW (230°)10.4 mphPartly Cloudy
2:30 PM66.2 °F59.0 °F78 %30.01 in6.2 miSW (230°)9.2 mphPartly Cloudy
3:00 PM66.2 °F59.0 °F78 %30.04 in6.2 miSW (220°)9.2 mphPartly Cloudy
3:30 PM64.4 °F59.0 °F83 %30.04 in6.2 miSW (230°)12.7 mphScattered Clouds
4:00 PM64.4 °F59.0 °F83 %30.04 in6.2 miWSW (240°)12.7 mphPartly Cloudy
4:30 PM64.4 °F59.0 °F83 %30.04 in6.2 miWSW (240°)13.8 mphPartly Cloudy
5:00 PM64.0 °F57.0 °F72 %30.07 in9.0 miWSW (240°)11.2 mphScattered Clouds
5:00 PM64.4 °F57.2 °F77 %30.06 in6.2 miWSW (240°)11.5 mphPartly Cloudy
5:30 PM62.6 °F57.2 °F82 %30.06 in6.2 miWSW (240°)15.0 mphPartly Cloudy
6:00 PM62.6 °F57.2 °F82 %30.09 in6.2 miWSW (250°)12.7 mphPartly Cloudy
6:30 PM62.6 °F57.2 °F82 %30.09 in6.2 miWSW (250°)16.1 mphPartly Cloudy
7:00 PM60.8 °F57.2 °F88 %30.12 in6.2 miWSW (250°)15.0 mphPartly Cloudy
7:30 PM60.8 °F55.4 °F82 %30.12 in6.2 miWSW (250°)17.3 mphPartly Cloudy
8:00 PM60.8 °F55.4 °F82 %30.15 in6.2 miWest (260°)18.4 mphPartly Cloudy
8:00 PM61.0 °F54.0 °F73 %30.16 in9.0 miWest (260°)17.9 mphScattered Clouds
8:30 PM60.8 °F51.8 °F72 %30.15 in6.2 miWest (260°)18.4 mphPartly Cloudy
9:00 PM60.8 °F53.6 °F77 %30.18 in6.2 miWSW (250°)17.3 mphPartly Cloudy
9:30 PM62.6 °F51.8 °F68 %30.18 inNorthPartly Cloudy
10:00 PM60.8 °F51.8 °F72 %30.18 in6.2 miWest (260°)17.3 mphPartly Cloudy
10:30 PM60.8 °F51.8 °F72 %30.21 in6.2 miWest (270°)18.4 mphPartly Cloudy
11:00 PM60.0 °F52.0 °F67 %30.22 in12.0 miWest (280°)17.9 mphPartly Cloudy
11:00 PM60.8 °F51.8 °F72 %30.18 in6.2 miWest (280°)17.3 mphPartly Cloudy
11:30 PM60.8 °F51.8 °F72 %30.21 in6.2 miWest (270°)16.1 mphPartly Cloudy
Hourly data recorded from LPHR, located miles away from Horta, Portugal







STORIES FROM OUR PARTNERS